Tracking 29892 objects as of 21-Nov-2024
HD Live streaming from Space Station
objects crossing your sky now

STARLINK-3829

Track STARLINK-3829 now!
10-day predictions
STARLINK-3829 is classified as:


NORAD ID: 52348
Int'l Code: 2022-045T
Perigee: 546.0 km
Apogee: 547.8 km
Inclination: 53.2 °
Period: 95.4 minutes
Semi major axis: 6917 km
RCS: Unknown
Launch date: April 29, 2022
Source: United States (US)
Launch site: AIR FORCE EASTERN TEST RANGE (AFETR)
Your satellite tracking list
Your tracking list is empty




NASA's NSSDC Master Catalog

Two Line Element Set (TLE):
1 52348U 22045T   24325.95097485  .00000730  00000-0  63930-4 0  9993
2 52348  53.2148 165.8116 0001329  93.2284 266.8860 15.08843580144263
Source of the keplerian elements: AFSPC